Regional Weather Roundup
Issued by NWS

Home | Current Version | Previous Version | Text Only | Print | Product List | Glossary Off
Versions: 1 2 3 4 5 6 7 8 9 10 11 12 13 14 15 16 17 18 19 20 21 22 23 24 25 26 27 28 29 30 31 32 33 34 35 36 37 38 39 40 41 42 43 44 45 46 47 48 49 50

270
ASUS43 KLOT 250003
RWRIL

ILLINOIS REGIONAL WEATHER ROUNDUP
NATIONAL WEATHER SERVICE CHICAGO/ROMEOVILLE IL
700 PM CDT TUE MAY 24 2016

NOTE: "FAIR" INDICATES FEW OR NO CLOUDS BELOW 12,000 FEET WITH NO
SIGNIFICANT WEATHER AND/OR OBSTRUCTIONS TO VISIBILITY.

* THESE STATIONS ARE NOT UNDER NWS QUALITY CONTROL. THEY ALSO MAY NOT
  REPORT WEATHER SUCH AS PRECIPITATION OR FOG.

ILZ001-002-007-009-015-016-024-250100-
NORTHWEST ILLINOIS

CITY           SKY/WX    TMP DP  RH WIND       PRES   REMARKS
MOLINE         CLOUDY    84  59  42 SW8       29.90R HX  84
6HR MIN TEMP:  84; 6HR MAX TEMP:  88;

STERLING*      PTSUNNY   85  57  38 VRB3      29.91S HX  84
$$

ILZ003-004-008-010-011-017-018-250100-
NORTH CENTRAL ILLINOIS

CITY           SKY/WX    TMP DP  RH WIND       PRES   REMARKS
ROCKFORD       CLOUDY    85  54  34 SW8       29.93R HX  83
6HR MIN TEMP:  82; 6HR MAX TEMP:  87;

FREEPORT*      MOSUNNY   80  58  46 SW9       29.93R HX  80
ROCHELLE*      MOSUNNY   85  55  35 S9        29.93R HX  83
DE KALB*       MOSUNNY   83  53  35 SW13      29.94R HX  81
$$

ILZ005-006-012>014-019>023-250100-
NORTHEAST ILLINOIS

CITY           SKY/WX    TMP DP  RH WIND       PRES   REMARKS
CHICAGO-OHARE  PTSUNNY   84  49  29 S9        29.92R HX  82
6HR MIN TEMP:  82; 6HR MAX TEMP:  86;

CHICAGO-MIDWAY PTSUNNY   85  50  29 SW10G20   29.93R HX  83
6HR MIN TEMP:  85; 6HR MAX TEMP:  89;

AURORA         MOSUNNY   83  55  38 S9        29.93R HX  82
6HR MIN TEMP:  83; 6HR MAX TEMP:  88;

LANSING*       SUNNY     83  51  33 SW10      29.95R HX  81
WAUKEGAN       SUNNY     73  55  53 E3        29.92R
6HR MIN TEMP:  73; 6HR MAX TEMP:  85;

DUPAGE AIRPORT MOSUNNY   83  51  33 SW13      29.92R HX  81
6HR MIN TEMP:  82; 6HR MAX TEMP:  87;

WHEELING       MOSUNNY   85  47  26 SW10      29.93R HX  82
6HR MIN TEMP:  83; 6HR MAX TEMP:  87;

MORRIS*        SUNNY     84  53  34 S14       29.93R HX  82
NORTHERLY ISL    N/A     86  46  24 S15         N/A  HX  83
NORTHERLY ISL    N/A     86  46  24 S15         N/A  HX  83
$$

LMZ740>746-250100-
SOUTHERN LAKE MICHIGAN

STATION/POSITION SKY/WX   TEMP    WIND        PRES    VSBY  WAVE
                          AIR SEA DIR/SP/G                  HT/PER
                          (F)     (DEG/KT/KT) (MB)    (MI)  (FT/S)
SOUTHERN BUOY              57 49  130/ 10/ 10 1013.5          1
WILMETTE HARBOR            63 57  100/  6/  6   N/A           1/ 2
HARRISON CRIB              84     200/ 12/ 15   N/A
BURNHAM HARBOR             85     190/  7/ 16   N/A
CALUMET HARBOR             86                 1012.8
BURNS HARBOR               84     200/ 12/ 18 1013.9F
MICHIGAN CITY              84     190/ 13/ 15   N/A
MICHIGAN CITY 6N           71 60  220/  6/  8   N/A           1
ST. JOSEPH                 74 64   90/  4/  4   N/A           0
$$

ILZ025>027-034>036-040-047-049-050-058-095>099-250100-
WEST-CENTRAL ILLINOIS

CITY           SKY/WX    TMP DP  RH WIND       PRES   REMARKS
QUINCY         CLOUDY    77  64  64 S6        29.94F
MACOMB*        CLOUDY    80  62  53 SW12      29.95S HX  81
$$

ILZ028>032-037-038-041>044-048-051>054-059>061-250100-
CENTRAL ILLINOIS

CITY           SKY/WX    TMP DP  RH WIND       PRES   REMARKS
BLOOMINGTON    CLOUDY    80  60  50 S13       29.98R HX  81
DECATUR        PTSUNNY   79  62  56 S14       29.97S HX  80
PEORIA         CLOUDY    80  61  52 S8        29.93S HX  81
6HR MIN TEMP:  80; 6HR MAX TEMP:  86;

LINCOLN*       CLOUDY    82  63  52 S5        29.95S HX  83
SPRINGFIELD    CLOUDY    81  63  54 S10       29.95S HX  82
6HR MIN TEMP:  81; 6HR MAX TEMP:  85;

TAYLORVILLE    NOT AVBL
$$

ILZ033-039-045-046-055>057-062-063-250100-
EAST-CENTRAL ILLINOIS

CITY           SKY/WX    TMP DP  RH WIND       PRES   REMARKS
CHAMPAIGN      MOSUNNY   80  58  46 S18       29.98S HX  80
MATTOON        MOSUNNY   77  58  51 S7        30.00R
$$

ILZ079-100>102-250100-
SOUTHWEST ILLINOIS

CITY           SKY/WX    TMP DP  RH WIND       PRES   REMARKS
ALTON          CLOUDY    72  64  78 S6        29.95S
CAHOKIA*       CLOUDY    72  62  71 S6        29.93F
SPARTA*        CLOUDY    69  63  80 SE6       29.95S
$$

ILZ064>066-069>071-074>076-080>082-084>086-088>090-092>094-250100-
SOUTH-CENTRAL ILLINOIS

CITY           SKY/WX    TMP DP  RH WIND       PRES   REMARKS
CARBONDALE     CLOUDY    73  65  75 S15       29.96F
6HR MIN TEMP:  72; 6HR MAX TEMP:  83;

CAIRO*         CLOUDY    69  66  91 SW5       30.05F
EFFINGHAM*     MOSUNNY   76  63  62 SE5       30.01S
MT. VERNON     CLOUDY    75  63  64 SW9       29.99F
SALEM*         CLOUDY    78  63  61 SW8       29.98F
$$

ILZ067-068-072-073-078-083-087-091-250100-
SOUTHEAST ILLINOIS

CITY           SKY/WX    TMP DP  RH WIND       PRES   REMARKS
LAWRENCEVILLE  MOSUNNY   80  56  43 S14       30.03S HX  80
FLORA*         MOSUNNY   78  62  57 S10       30.00S HX  80
HARRISBURG*    CLOUDY    77  65  65 SW10      30.01F
ROBINSON*      SUNNY     75  58  55 S9        30.03R
CARMI*         MOSUNNY   76  62  61 S9        30.00F
$$

ABBREVIATIONS USED IN REMARKS
   TC - TEMPERATURE IN CELSIUS
  WCI - WIND CHILL INDEX
   HX - HEAT INDEX
  VSB - VISIBILITY
$$





USA.gov is the U.S. government's official web portal to all federal, state and local government web resources and services.